False Pass, AK

8:56 AM HDT on October 23, 2017 (GMT -0900)
False Pass

Weather History for PAKF - May, 2013

Change the Weather History Date:

Monday, May 20, 2013

  Actual Average (PACD) Record (PACD)
Temperature  
Mean Temperature 42 °F -  
Max Temperature 43 °F 44 °F 54 °F (1992)
Min Temperature 39 °F 34 °F 23 °F (1977)
Degree Days  
Heating Degree Days 24    
Moisture  
Dew Point 40 °F    
Average Humidity 94    
Maximum Humidity 100    
Minimum Humidity 87    
Precipitation  
Precipitation 3.61 in - - ()
Sea Level Pressure  
Sea Level Pressure 30.38 in    
Wind  
Wind Speed 26 mph (SSE)    
Max Wind Speed 47 mph    
Max Gust Speed 67 mph    
Visibility 4 miles    
Events Rain    
Averages and records for this station are not official NWS values.
T = Trace of Precipitation, MM = Missing Value Source: NWS Daily Summary

Daily Weather History Graph

Daily Weather History Graph

Search for Another Location

Airport or City:

Trip Planner

Search our weather history database for the weather conditions in past years. The results will help you decide how hot, cold, wet, or windy it might be!

Date:

Astronomy

May. 20, 2013 Rise Set
Actual Time 5:37 AM HDT 10:03 PM HDT
Civil Twilight 4:48 AM HDT 10:53 PM HDT
Nautical Twilight 3:31 AM HDT 12:11 AM HDT
Astronomical Twilight 2:22 AM HDT 1:17 AM HDT
Moon 4:41 PM HDT (5/20) 3:28 AM HDT (5/20)
Length of Visible Light 18h 05m
Length of Day
16h 26m
Waxing Gibbous, 77% of the Moon is Illuminated
May 20
Waxing Gibbous
May 24
Full
May 31
Last Quarter
Jun 8
New
Jun 16
First Quarter

Hourly Weather History & Observations

Time (HDT) Temp. Windchill Dew Point Humidity Pressure Visibility Wind Dir Wind Speed Gust Speed Precip Events Conditions
12:01 AM 41.0 °F 32.8 °F 37.9 °F 89% 30.69 in 9.0 mi SE 16.1 mph 32.2 mph 0.02 in Rain Light Rain
12:32 AM 39.2 °F 29.0 °F 37.4 °F 93% 30.38 in 8.0 mi SSE 21.9 mph 38.0 mph 0.04 in Rain Light Rain
1:01 AM 39.9 °F 30.0 °F 37.0 °F 89% 30.67 in 7.0 mi SE 21.9 mph 34.5 mph 0.09 in Rain Light Rain
1:46 AM 39.2 °F 28.3 °F 37.4 °F 93% 30.38 in 7.0 mi SE 25.3 mph 47.2 mph 0.12 in Rain Light Rain
2:01 AM 39.9 °F 29.2 °F 37.9 °F 93% 30.65 in 7.0 mi SE 25.3 mph 44.9 mph 0.16 in Rain Light Rain
2:29 AM 39.2 °F 28.7 °F 37.4 °F 93% 30.35 in 7.0 mi SSE 23.0 mph 50.6 mph 0.05 in Rain Light Rain
3:01 AM 39.9 °F 27.8 °F 37.9 °F 93% 30.62 in 4.0 mi SSE 33.4 mph 47.2 mph 0.16 in Rain Light Rain
4:01 AM 41.0 °F 29.1 °F 39.0 °F 93% 30.61 in 4.0 mi SSE 34.5 mph 54.1 mph 0.20 in Rain Light Rain
5:01 AM 41.0 °F 28.5 °F 39.0 °F 93% 30.58 in 5.0 mi SSE 39.1 mph 50.6 mph 0.14 in Rain Light Rain
6:01 AM 41.0 °F 29.3 °F 39.2 °F 93% 30.28 in 2.5 mi SSE 33.4 mph 46.0 mph 0.19 in Rain Light Rain
6:18 AM 41.0 °F 29.3 °F 39.0 °F 93% 30.54 in 2.5 mi SSE 33.4 mph 50.6 mph 0.24 in Rain Light Rain
6:46 AM 41.0 °F 30.2 °F 39.2 °F 93% 30.27 in 3.0 mi SSE 27.6 mph 58.7 mph 0.09 in Rain Light Rain
7:01 AM 41.0 °F 29.8 °F 39.0 °F 93% 30.53 in 3.0 mi SSE 29.9 mph 52.9 mph 0.12 in Rain Light Rain
7:20 AM 42.8 °F 30.0 °F 39.2 °F 87% 30.22 in 1.8 mi SSE 47.2 mph 66.7 mph 0.05 in Rain Light Rain
7:30 AM 41.0 °F 28.8 °F 39.2 °F 93% 30.24 in 3.0 mi SSE 36.8 mph 54.1 mph 0.09 in Rain Light Rain
7:54 AM 41.0 °F 28.8 °F 39.2 °F 93% 30.24 in 2.5 mi SSE 36.8 mph 46.0 mph 0.12 in Rain Light Rain
8:01 AM 41.0 °F 29.3 °F 39.2 °F 93% 30.24 in 2.5 mi SSE 33.4 mph 48.3 mph 0.14 in Rain Light Rain
8:12 AM 41.0 °F 29.7 °F 39.9 °F 96% 30.53 in 2.5 mi SSE 31.1 mph 47.2 mph 0.16 in Rain Light Rain
8:21 AM 41.0 °F 29.1 °F 39.2 °F 93% 30.23 in 1.5 mi SSE 34.5 mph 50.6 mph 0.03 in Rain Light Rain
8:30 AM 41.0 °F 28.5 °F 39.2 °F 93% 30.22 in 1.5 mi South 39.1 mph 51.8 mph 0.05 in Rain Light Rain
9:01 AM 42.1 °F 30.1 °F 39.9 °F 92% 30.50 in 1.5 mi SSE 38.0 mph 58.7 mph 0.15 in Rain Light Rain
9:27 AM 42.8 °F 31.0 °F 41.0 °F 93% 30.23 in 1.0 mi South 39.1 mph 51.8 mph 0.13 in Rain Light Rain
9:39 AM 42.8 °F 31.3 °F 41.0 °F 93% 30.25 in 1.2 mi South 36.8 mph 46.0 mph 0.21 in Rain Light Rain
10:01 AM 42.1 °F 32.1 °F 41.0 °F 96% 30.56 in 1.2 mi SSE 25.3 mph 47.2 mph 0.34 in Rain Light Rain
11:01 AM 42.8 °F 36.2 °F 41.0 °F 93% 30.29 in 1.2 mi SE 12.7 mph 23.0 mph 0.32 in Rain Light Rain
11:16 AM 42.8 °F 33.3 °F 41.0 °F 93% 30.27 in 2.5 mi SE 24.2 mph 36.8 mph 0.38 in Rain Light Rain
11:25 AM 43.0 °F 33.3 °F 41.0 °F 93% 30.56 in 2.5 mi SSE 25.3 mph 35.7 mph 0.39 in Rain Light Rain
11:49 AM 42.8 °F 32.9 °F 42.8 °F 100% 30.23 in 1.5 mi SSE 26.5 mph 39.1 mph 0.10 in Rain Light Rain
12:01 PM 43.0 °F 34.2 °F 42.1 °F 97% 30.54 in 1.5 mi SE 20.7 mph 43.7 mph 0.14 in Rain Light Rain
12:12 PM 42.8 °F 34.0 °F 42.8 °F 100% 30.27 in 2.5 mi SSE 20.7 mph 34.5 mph 0.04 in Rain Light Rain
1:01 PM 42.8 °F 34.5 °F 42.8 °F 100% 30.28 in 3.0 mi SE 18.4 mph 33.4 mph 0.20 in Rain Light Rain
1:21 PM 42.8 °F 34.8 °F 42.8 °F 100% 30.28 in 2.5 mi SE 17.3 mph 31.1 mph 0.24 in Rain Light Rain
2:01 PM 43.0 °F 34.5 °F 42.1 °F 97% 30.57 in 2.5 mi ESE 19.6 mph 28.8 mph 0.36 in Rain Light Rain
2:16 PM 42.8 °F 33.8 °F 42.8 °F 100% 30.27 in 3.0 mi ESE 21.9 mph 32.2 mph 0.02 in Rain Light Rain
3:01 PM 43.0 °F 34.8 °F 42.1 °F 97% 30.54 in 3.0 mi SE 18.4 mph 31.1 mph 0.06 in Rain Light Rain
4:01 PM 43.0 °F 33.8 °F 42.1 °F 97% 30.52 in 4.0 mi SE 23.0 mph 35.7 mph 0.13 in Rain Light Rain
5:01 PM 44.1 °F 35.2 °F 41.0 °F 89% 30.50 in 4.0 mi SSE 23.0 mph 41.4 mph 0.09 in Rain Light Rain
5:21 PM 44.6 °F 35.1 °F 41.0 °F 87% 30.22 in 6.0 mi SE 27.6 mph 47.2 mph 0.03 in Rain Light Rain
6:01 PM 42.8 °F 34.8 °F 41.0 °F 93% 30.21 in 6.0 mi SE 17.3 mph 34.5 mph 0.10 in Rain Rain
6:13 PM 42.8 °F 34.8 °F 41.0 °F 93% 30.21 in 6.0 mi SE 17.3 mph 32.2 mph 0.12 in Rain Light Rain
7:01 PM 43.0 °F 33.3 °F 41.0 °F 93% 30.49 in 6.0 mi ESE 25.3 mph 40.3 mph 0.18 in Rain Light Rain
7:33 PM 42.8 °F 33.1 °F 41.0 °F 93% 30.16 in 4.0 mi SE 25.3 mph 44.9 mph 0.05 in Rain Light Rain
7:51 PM 42.8 °F 31.9 °F 41.0 °F 93% 30.14 in 2.0 mi SE 32.2 mph 47.2 mph 0.08 in Rain Light Rain
7:59 PM 42.8 °F 31.9 °F 41.0 °F 93% 30.14 in 1.5 mi SSE 32.2 mph 50.6 mph 0.10 in Rain Light Rain
8:01 PM 43.0 °F 31.4 °F 41.0 °F 93% 30.45 in 1.5 mi SSE 38.0 mph 54.1 mph 0.10 in Rain Light Rain
9:01 PM 42.1 °F 31.5 °F 41.0 °F 96% 30.43 in 1.5 mi SSE 28.8 mph 56.4 mph 0.16 in Rain Rain
10:01 PM 42.8 °F 33.3 °F 41.0 °F 93% 30.14 in 3.0 mi SSE 24.2 mph 41.4 mph 0.14 in Rain Light Rain
11:01 PM 43.0 °F 36.0 °F 41.0 °F 93% 30.45 in 7.0 mi SE 13.8 mph 26.5 mph 0.24 in Rain Rain